www.pogodaiklimat.ru

Погода и климат >> Архив погоды >> Гана >> Акюс


ПОГОДА в Акюсе

  • Прогноз погоды в Акюсе
  • Монитор погоды в Акюсе

АРХИВ ПОГОДЫ в Акюсе

Время (UTC), дата Ветер
(напр.,м/с)
 
Видим.   Явления Облачность Т
(С)
Тd
(С)
f
(%)
Тe
(С)
Тes
(С)
Комфортность P
(гПа)
Po
(гПа)
Тmin
(С)
Tmax
(С)
R
(мм)
R24
(мм)
S
(см)
06 12.02 штиль 0 12 км 1/0
[Ci fib]
+26.0 +24.6 92 +37 +37 очень
душно
1010.3 1008.1 +25.5
09 12.02 СЗ 2 16 км 6/5 360 м
[Sc Ci sp]
+29.0 +26.4 86 +44 +49 опасность
перегрева
1011.6 1009.4
12 12.02 З 1 12 км 9/3 450 м
[Cu med, cong Cs]
+33.1 +24.2 60 +45 +60 опасность
перегрева
1010.8 1008.7
15 12.02 С 1 8000 м мгла 9/1 450 м
[Cu med, cong Cs]
+36.0 +20.7 41 +43 +51 опасность
перегрева
1008.4 1006.3
00 13.02 штиль 0 н/о дымка ясно +28.0 +25.3 85 +41 +41 опасность
перегрева
1012.5 1010.3
03 13.02 штиль 0 8000 м дымка ясно +26.6 +25.0 91 +38 +38 очень
душно
1001.1 998.9
09 13.02 С 1 8000 м дымка 9/0 <50 м
[Cs]
+28.6 +25.5 83 +42 +52 опасность
перегрева
1013.4 1011.2
12 13.02 ЮЗ 2 6000 м мгла 8/3 420 м
[Cu med, cong Cs]
+32.0 +25.6 69 +47 +60 опасность
перегрева
1011.9 1009.7
15 13.02 В 2 8000 м мгла 6/4 480 м
[Cu med, cong Cs]
+35.7 +23.2 49 +46 +52 опасность
перегрева
1008.6 1006.5
18 13.02 ЮВ 26 8000 м мгла 8/0
[Cs]
+32.0 +23.9 62 +43 +43 опасность
перегрева
1009.9 1007.8 +36.0
21 13.02 ЮВ 1 8000 м мгла 9/9 360 м
[Sc]
+30.0 +26.0 79 +45 +45 опасность
перегрева
1013.0 1010.8
03 14.02 штиль 0 8000 м дымка 9/9 360 м
[Sc]
+27.5 +25.5 89 +40 +40 очень
душно
1012.3 1010.1
06 14.02 штиль 0 8000 м дымка 1/0
[Ci sp]
+27.0 +25.4 91 +39 +39 очень
душно
1012.9 1010.7 +26.8
09 14.02 ЮЗ 1 8000 м мгла ясно +30.0 +25.8 78 +45 +56 опасность
перегрева
1014.5 1012.3
12 14.02 СЗ 1 6000 м мгла 1/1 480 м
[Cu med, cong]
+33.8 +26.0 64 +50 +71 опасность
перегрева
1013.0 1010.9
15 14.02 СВ 2 6000 м мгла 3/3 480 м
[Cu med, cong]
+37.2 +20.9 39 +44 +51 опасность
перегрева
1010.2 1008.1
18 14.02 ЮВ 2 6000 м мгла 3/0
[Ci sp]
+32.5 +24.4 62 +45 +45 опасность
перегрева
1010.7 1008.6 +37.2
21 14.02 СВ 2 6000 м мгла 1/0
[]
+30.0 +25.3 76 +44 +44 опасность
перегрева
1013.7 1011.5
00 15.02 штиль 0 6000 м дымка ясно +28.6 +25.6 84 +42 +42 опасность
перегрева
1014.1 1011.9
12 15.02 СЗ 2 6000 м мгла 8/0
[Ac trans Cs]
+34.0 +24.7 58 +47 +62 опасность
перегрева
1014.0 1011.9
15 15.02 СЗ 2 6000 м мгла 8/0
[Cs]
+35.6 +22.5 47 +45 +54 опасность
перегрева
1010.3 1008.2
18 15.02 ЮВ 3 6000 м мгла 8/0
[Cs]
+32.0 +25.3 68 +46 +46 опасность
перегрева
1010.6 1008.5 +35.6
00 16.02 ЮЗ 1 8000 м дымка 9/0
[Ac trans]
+29.5 +26.6 84 +45 +45 опасность
перегрева
1013.4 1011.2
15 16.02 ЮВ 3 н/о мгла 4/4 300 м
[Cu Sc As trans Cs]
+37.6 +22.5 42 +46 +51 опасность
перегрева
1009.2 1007.1
18 16.02 ЮВ 3 н/о мгла 1/0
[Ci sp]
+32.0 +25.3 68 +46 +46 опасность
перегрева
1010.3 1008.2 +37.6
21 16.02 ЮВ 2 8000 м дымка 3/3 360 м
[Sc]
+29.6 +26.6 84 +46 +46 опасность
перегрева
1013.0 1010.8
03 17.02 штиль 0 8000 м дымка ясно +27.6 +26.1 92 +42 +42 опасность
перегрева
1011.5 1009.3
06 17.02 штиль 0 8000 м дымка ясно +27.0 +25.3 90 +39 +39 очень
душно
1012.1 1009.9 +26.5
09 17.02 СВ 2 8000 м дымка 8/1 400 м
[Cu hum Cs]
+29.5 +26.2 82 +45 +53 опасность
перегрева
1013.7 1011.5
15 17.02 ЮВ 2 8000 м мгла 4/4 480 м
[Cu med, cong]
+37.0 +21.9 42 +45 +52 опасность
перегрева
1008.6 1006.5
00 18.02 штиль 0 8000 м дымка ясно +29.0 +26.3 85 +44 +44 опасность
перегрева
1012.6 1010.4
03 18.02 штиль 0 8000 м дымка ясно +27.5 +26.0 92 +41 +41 опасность
перегрева
1010.9 1008.7
06 18.02 штиль 0 8000 м дымка ясно +27.0 +25.5 92 +40 +40 очень
душно
1011.0 1008.8 +26.5
09 18.02 ЮЗ 1 8000 м мгла 5/5 450 м
[Cu med, cong]
+31.0 +25.7 73 +46 +51 опасность
перегрева
1012.8 1010.6
12 18.02 Ю 1 8000 м мгла 8/8 450 м
[Cu med, cong]
+33.5 +25.5 63 +48 +53 опасность
перегрева
1011.6 1009.5
18 18.02 ЮВ 2 8000 м мгла 9/0
[Cs]
+31.5 +24.8 68 +45 +45 опасность
перегрева
1008.3 1006.2 +35.5

 

Местоположение метеостанции Акюс (Гана): широта 6.10 долгота 0.12 высота над уровнем моря 19 м.

В архиве по умолчанию представлена погода в Акюсе за последнюю неделю. Архивные данные за месяц целиком и за предыдущие месяцы, начиная с января 2011 года, Вы можете получить, выбрав интересующий диапазон дат из раскрывающегося списка и нажав кнопку "Ввод!".


*Определитесь, кто Вы:
робот инопланетянин человек

Внимание! Время в таблицах - всемирное. Для получения местного времени необходимо прибавить поправку, которая равна 1 ч.

Смотрите также архив погоды в соседних городах и на ближайших метеорологических станциях:

Погода в Кофоридуа (Гана) (41 км)
Погода в Тема (Гана) (55 км)
Погода в Аккра (Гана) (64 км)
Погода в Ада (Гана) (67 км)
Погода в Хо (Гана) (68 км)
Погода в Акатзи (Гана) (75 км)
Погода в Абетифи (Гана) (115 км)
Погода в Аким Ода (Гана) (123 км)
Погода в Ломе (Того) (125 км)
Погода в Таблигбо (Того) (162 км)

Пояснения к столбцам:

Ветер - указаны скорость ветра в м/с - средняя за 10 мин, порывы в срок и между сроками (в фигурных скобках) и направление, откуда дует ветер: С - северный, СВ - северо-восточный, В - восточный, ЮВ - юго-восточный, Ю - южный, ЮЗ - юго-западный, З - западный, СЗ - северо-западный.
Видимость - горизонтальная дальность видимости в метрах или километрах. При видимости от 1 до 10 км при отсутствии осадков обычно наблюдается дымка, при ухудшении видимости до 1 км и менее - туман. В сухую погоду видимость может ухудшаться дымом, пылью или мглою.
Явления - указаны атмосферные явления, наблюдавшиеся в срок или в последний час перед сроком; фигурными скобками обозначены явления, наблюдавшиеся между сроками (за 1-3 часа до срока); квадратными скобками обозначены град или гололедные отложения с указанием их диаметра в мм.
Облачность - указаны через наклонную черту общая и нижняя облачность в баллах и высота нижней границы облаков в метрах; квадратными скобками обозначены формы облаков: Ci - перистые, Cs - перисто-слоистые, Cc - перисто-кучевые, Ac - высококучевые, As - высокослоистые, Sc - слоисто-кучевые, Ns - слоисто-дождевые, Cu - кучевые, Cb - кучево-дождевые. Подробнее классификацию облаков см. в Атласе облаков (PDF).
T - Температура воздуха - температура, измеренная на высоте 2 м над землей.
Td - Температура точки росы - температура, при понижении до которой содержащийся в воздухе водяной пар достигнет насыщения.
f - Относительная влажность воздуха - влажноcть воздуха, измеренная на высоте 2 м над землей.
Te - Эффективная температура - температура, которую ощущает одетый по сезону человек в тени. Характеристика душности погоды. При расчете учитывается влияние влажности воздуха и скорости ветра на теплоощущения человека.
Tes - Эффективная температура на солнце - температура, которую ощущает человек, с поправкой на солнечный нагрев. Характеристика знойности погоды. Зависит от высоты солнца над горизонтом, облачности и скорости ветра. Ночью, в пасмурную погоду, а также при ветре 12 м/с и более поправка равна нулю.
P - Атмосферное давление - приведенное к уровню моря атмосферное давление.
Po - Атмосферное давление - измеренное на уровне метеостанции атмосферное давление.
Tmin - Минимальная температура - минимум температуры воздуха на высоте 2 м над землей.
Tmax - Максимальная температура - максимум температуры воздуха на высоте 2 м над землей.
R - Количество осадков - Количество выпавших осадков за период времени, мм. При наведении курсора мыши на число - период времени, за который выпало указанное количество осадков.
R24 - Количество осадков - Количество выпавших осадков за 24 часа, мм.
S - Снежный покров - Высота снежного покрова, см. При наведении курсора мыши на число - состояние снежного покрова и степень покрытия местности в баллах.